星链-37402(STARLINK-37402)

导读

STARLINK-37402(NORAD编号:69210)是美国太空探索技术公司(SpaceX)星链(Starlink)星座中的一颗低轨通信卫星,隶属于全球规模最大的卫星互联网组网项目。作为SpaceX批量部署的星链卫星之一,它运行于近地轨道,主要为全球偏远地区、海上及航空场景提供宽带互联网接入服务,支持低延迟数据传输。该卫星沿用星链标准设计,依托可展开天线优化通信性能,是SpaceX构建全球覆盖低轨卫星网络的组成部分,NORAD编号为空间观测与轨道碰撞预警提供了统一识别依据。

Basic Information
目录编号:
69210
目录名称:
STARLINK-37402
国际标识:
2026-114AE
轨道中心:
EARTH
卫星名称:
星链-37402
卫星全名:
星链-37402(STARLINK-37402)
卫星状态:
在轨 (已飞行109 天)
发射日期:
2026-05-25 UTC
国别 :
美国 (US)
星等 :
--
This satellite is enrolled in the Space Conjunction Data Service (SCDS) and the current flight risk assessment level is: No High Risk
Orbit Information
数据来源 国际轨道数据
星历时间: 2026-09-11T11:23:02+0800
14小时前
查看轨道信息
半长轴: 6840.802km
偏心率: 0.0001241
轨道倾角: 53.158°
近地点辐角 83.545°
升交点赤经 157.147°
平近点角 276.569°
近地点: 461.816km
远地点: 463.514km
周期: 93.847分钟
每日圈数: 15.344129
Detailed Information
固有亮度:
5
最大亮度:
2.5
卫星平台:
Starlink V1.0
覆盖范围:
全球
运营商:
太空探索技术公司
运营商所在国:
美国
制造商(研发单位):
太空探索技术公司
制造商所在国:
美国
使用方式:
暂无
Satellite Introduction
Starlink 计划是 SpaceX 推出的全球卫星互联网项目,通过发射低轨道卫星,为全球尤其是偏远地区提供高速、低延迟的互联网服务。自 2019 年起,Starlink 已部署数千颗卫星,旨在缩小全球数字鸿沟,推动互联网普及。该项目还为军事、航空等行业提供通信支持,带来广泛经济效益。
2D Orbit Map
3D Orbit Map
Orbit Altitude Analysis Chart
Orbit Inclination Analysis Chart
Orbit Comprehensive Analysis Chart
View Comprehensive Chart
Conjunction Data List
Event ID Objects TCA Miss Dist (km) Collision Risk Probability Collision Risk Index (CRI) Action
CDM_260913-091406-171406-921021
2026-09-13T
09:14:18+0000
2.229 km
极远距离
1.947988E-6 低风险 0.41
CDM_260913-014005-267606-921021
2026-09-13T
01:40:18+0000
2.488 km
极远距离
1.473043E-6 低风险 0.38
CDM_260913-104806-171406-921021
2026-09-13T
10:48:05+0000
2.646 km
极远距离
1.413458E-6 低风险 0.38
CDM_260911-153604-353406-921021
2026-09-11T
15:36:24+0000
2.671 km
极远距离
1.177989E-6 低风险 0.36
CDM_260911-092105-420706-921021
2026-09-11T
09:21:15+0000
2.779 km
极远距离
1.00615E-6 低风险 0.35
CDM_260912-184604-945906-921021
2026-09-12T
18:46:12+0000
2.687 km
极远距离
9.446615E-7 极低风险 0.35
Miss Distance Evolution Trend with All Objects
Collision Probability Evolution Trend with All Objects